Regional Weather Roundup
Issued by NWS State College, PA

Home | Current Version | Previous Version | Text Only | Print | Product List | Glossary On
Versions: 1 2 3 4 5 6 7 8 9 10 11 12 13 14 15 16 17 18 19 20 21 22 23 24 25 26 27 28 29 30 31 32 33 34 35 36 37 38 39 40 41 42 43 44 45 46 47 48 49 50
438
ASUS41 KCTP 200310
RWRCTP

REGIONAL WEATHER ROUNDUP
NATIONAL WEATHER SERVICE STATE COLLEGE PA
1100 PM EDT SAT AUG 19 2017

Note: "fair" indicates few or no clouds below 12,000 feet with no
significant weather and/or obstructions to visibility.

* = STATION THAT DOES NOT REPORT PRECIPITATION /E.G. RAIN...SNOW...ETC/
    THUNDER OR FOG.

PAZ002>004-007>009-013>016-020>023-029>032-200400-
WESTERN PENNSYLVANIA

CITY           SKY/WX    TMP DP  RH WIND       PRES   REMARKS
ERIE           CLEAR     65  58  78 S5        29.99R
MEADVILLE      CLEAR     64  60  87 CALM      30.02R
FRANKLIN*      CLEAR     61  55  82 W5        30.03R
NEW CASTLE     FAIR      61  60  97 CALM      30.03R
BEAVER COUNTY  NOT AVBL
BUTLER*        FOG       61  61 100 CALM      30.03R VSB 3/4
PITTSBURGH INT PTCLDY    64  63  96 S5        30.02R
PITTSBURGH     CLEAR     63  60  90 S6        30.02R
INDIANA*       CLEAR     61  61 100 SW3       30.06R
LATROBE        CLEAR     61  61 100 CALM      30.04R
WASHINGTON CO* CLEAR     61  57  88 CALM      30.02S
$$

PAZ004>006-010>012-017>019-024>028-033>037-041-042-045-046-049>053-200400-
CENTRAL PENNSYLVANIA

CITY           SKY/WX    TMP DP  RH WIND       PRES   REMARKS
BRADFORD       CLEAR     60  58  92 W5        30.02R
DUBOIS         FOG       59  58  96 SW5       30.02R VSB 1/4
CLEARFIELD     PTCLDY    60  60 100 S6        30.02R
JOHNSTOWN      CLEAR     60  57  89 SW7       30.05R
ALTOONA        CLEAR     60  59  96 CALM      30.03R
STATE COLLEGE  CLEAR     59  58  97 CALM      30.00R
WILLIAMSPORT   CLEAR     67  62  84 W8        29.95R
SELINSGROVE    CLEAR     62  62 100 CALM      29.98R
FT INDIANTOWN  CLEAR     64  64 100 W6        29.98R
CAPITAL CITY   CLEAR     66  59  78 CALM      29.98R
HARRISBURG     PTCLDY    66  64  93 NE5       29.97R
YORK           PTCLDY    65  63  93 CALM      29.98S
$$

PAZ038>040-043-044-047-048-054-055-060>062-067>071-200400-
EASTERN PENNSYLVANIA

CITY           SKY/WX    TMP DP  RH WIND       PRES   REMARKS
SCRANTON       MOCLDY    64  63  96 CALM      29.95R
MOUNT POCONO     N/A     61  60  97 W5        29.97F
ALLENTOWN      CLOUDY    68  63  84 W5        29.93R
QUAKERTOWN*    CLOUDY    66  64  94 NW3       29.95R
READING        PTCLDY    66  65  96 W5        29.96R
LANCASTER      CLOUDY    66  64  93 NW3       29.98R
COATESVILLE    MOCLDY    68  61  77 W7        29.98R
POTTSTOWN      CLOUDY    67  63  87 VRB3      29.96R
BLUE BELL      CLEAR     70  61  73 W3        29.95R
DOYLESTOWN     CLOUDY    73  60  63 SW6       29.93R
WILLOW GROVE   NOT AVBL
NORTH PHILA    CLEAR     77  64  64 W8        29.93R
PHILADELPHIA   PTCLDY    78  64  61 W8        29.93R
$$




USA.gov is the U.S. government's official web portal to all federal, state and local government web resources and services.